Time,TemperatureF,DewpointF,PressureIn,WindDirection,WindDirectionDegrees,WindSpeedMPH,WindSpeedGustMPH,Humidity,HourlyPrecipIn,Conditions,Clouds,dailyrainin,SoftwareType,DateUTC
2013-02-26 00:01:00,30.0,6.0,29.98,SSW,195,0.0,3.0,35,0.00,,,0.00,,2013-02-26 07:01:00,
2013-02-26 00:11:00,30.0,6.0,29.98,SSW,195,0.0,3.0,35,0.00,,,0.00,,2013-02-26 07:11:00,
2013-02-26 00:21:00,29.0,7.0,29.99,WSW,250,0.0,3.0,38,0.00,,,0.00,,2013-02-26 07:21:00,
2013-02-26 00:31:00,29.0,5.0,29.99,West,273,2.0,3.0,35,0.00,,,0.00,,2013-02-26 07:31:00,
2013-02-26 00:41:00,29.0,5.0,29.99,West,273,2.0,3.0,35,0.00,,,0.00,,2013-02-26 07:41:00,
2013-02-26 00:52:00,30.0,6.0,29.99,WSW,237,1.0,5.0,35,0.00,,,0.00,,2013-02-26 07:52:00,
2013-02-26 01:01:00,31.0,5.0,30.00,NW,313,1.0,5.0,32,0.00,,,0.00,,2013-02-26 08:01:00,
2013-02-26 01:11:00,30.0,4.0,30.00,SSE,157,1.0,5.0,33,0.00,,,0.00,,2013-02-26 08:11:00,
2013-02-26 01:21:00,30.0,4.0,30.00,SSE,157,1.0,5.0,33,0.00,,,0.00,,2013-02-26 08:21:00,
2013-02-26 01:31:00,28.0,6.0,30.00,SW,226,2.0,7.0,39,0.00,,,0.00,,2013-02-26 08:31:00,
2013-02-26 01:41:00,28.0,6.0,30.00,SW,226,2.0,7.0,39,0.00,,,0.00,,2013-02-26 08:41:00,
2013-02-26 01:52:00,29.0,6.0,30.00,SSW,211,3.0,5.0,37,0.00,,,0.00,,2013-02-26 08:52:00,
2013-02-26 02:01:00,29.0,5.0,29.99,NW,317,0.0,3.0,35,0.00,,,0.00,,2013-02-26 09:01:00,
2013-02-26 02:11:00,29.0,5.0,29.99,NW,317,0.0,3.0,35,0.00,,,0.00,,2013-02-26 09:11:00,
2013-02-26 02:21:00,28.0,5.0,29.98,WNW,294,0.0,3.0,37,0.00,,,0.00,,2013-02-26 09:21:00,
2013-02-26 02:31:00,28.0,6.0,29.97,WNW,294,0.0,3.0,39,0.00,,,0.00,,2013-02-26 09:31:00,
2013-02-26 02:42:00,28.0,6.0,29.97,WNW,294,0.0,3.0,39,0.00,,,0.00,,2013-02-26 09:42:00,
2013-02-26 02:51:00,26.0,6.0,29.97,SE,142,1.0,4.0,41,0.00,,,0.00,,2013-02-26 09:51:00,
2013-02-26 03:01:00,28.0,7.0,29.97,WSW,239,1.0,4.0,41,0.00,,,0.00,,2013-02-26 10:01:00,
2013-02-26 03:11:00,28.0,7.0,29.97,WSW,239,1.0,4.0,41,0.00,,,0.00,,2013-02-26 10:11:00,
2013-02-26 03:21:00,27.0,6.0,29.97,NNE,22,1.0,2.0,40,0.00,,,0.00,,2013-02-26 10:21:00,
2013-02-26 03:31:00,27.0,6.0,29.97,NNE,21,0.0,2.0,40,0.00,,,0.00,,2013-02-26 10:31:00,
2013-02-26 03:41:00,27.0,6.0,29.97,NNE,21,0.0,2.0,40,0.00,,,0.00,,2013-02-26 10:41:00,
2013-02-26 03:52:00,28.0,5.0,29.97,NNE,22,2.0,2.0,36,0.00,,,0.00,,2013-02-26 10:52:00,
2013-02-26 04:01:00,29.0,5.0,29.97,West,262,1.0,3.0,35,0.00,,,0.00,,2013-02-26 11:01:00,
2013-02-26 04:11:00,29.0,5.0,29.97,West,262,1.0,3.0,35,0.00,,,0.00,,2013-02-26 11:11:00,
2013-02-26 04:21:00,28.0,3.0,29.96,West,261,2.0,2.0,34,0.00,,,0.00,,2013-02-26 11:21:00,
2013-02-26 04:31:00,28.0,3.0,29.94,West,262,0.0,2.0,33,0.00,,,0.00,,2013-02-26 11:31:00,
2013-02-26 04:41:00,27.0,2.0,29.94,West,262,0.0,1.0,34,0.00,,,0.00,,2013-02-26 11:41:00,
2013-02-26 04:52:00,27.0,2.0,29.94,West,262,0.0,1.0,34,0.00,,,0.00,,2013-02-26 11:52:00,
2013-02-26 05:01:00,27.0,2.0,29.94,WNW,297,1.0,2.0,34,0.00,,,0.00,,2013-02-26 12:01:00,
2013-02-26 05:11:00,27.0,2.0,29.94,WNW,297,1.0,2.0,34,0.00,,,0.00,,2013-02-26 12:11:00,
2013-02-26 05:21:00,28.0,3.0,29.94,NE,54,2.0,3.0,34,0.00,,,0.00,,2013-02-26 12:21:00,
2013-02-26 05:32:00,27.0,4.0,29.96,NE,55,1.0,3.0,37,0.00,,,0.00,,2013-02-26 12:32:00,
2013-02-26 05:41:00,27.0,4.0,29.96,NE,55,1.0,3.0,37,0.00,,,0.00,,2013-02-26 12:41:00,
2013-02-26 05:52:00,26.0,3.0,29.96,NE,55,0.0,2.0,36,0.00,,,0.00,,2013-02-26 12:52:00,
2013-02-26 06:01:00,27.0,3.0,29.96,SSW,200,2.0,5.0,35,0.00,,,0.00,,2013-02-26 13:01:00,
2013-02-26 06:11:00,26.0,4.0,29.96,SSW,198,1.0,4.0,38,0.00,,,0.00,,2013-02-26 13:11:00,
2013-02-26 06:21:00,26.0,4.0,29.96,SSW,198,1.0,4.0,38,0.00,,,0.00,,2013-02-26 13:21:00,
2013-02-26 06:31:00,26.0,5.0,29.96,SSW,207,3.0,4.0,40,0.00,,,0.00,,2013-02-26 13:31:00,
2013-02-26 06:42:00,26.0,5.0,29.96,SSW,207,3.0,4.0,40,0.00,,,0.00,,2013-02-26 13:42:00,
2013-02-26 06:52:00,27.0,4.0,29.96,SSW,194,0.0,4.0,37,0.00,,,0.00,,2013-02-26 13:52:00,
2013-02-26 07:01:00,27.0,6.0,29.96,SW,224,1.0,2.0,40,0.00,,,0.00,,2013-02-26 14:01:00,
2013-02-26 07:11:00,27.0,6.0,29.96,SW,224,1.0,2.0,40,0.00,,,0.00,,2013-02-26 14:11:00,
2013-02-26 07:21:00,28.0,6.0,29.96,South,188,1.0,5.0,39,0.00,,,0.00,,2013-02-26 14:21:00,
2013-02-26 07:31:00,27.0,5.0,29.97,SSE,160,1.0,4.0,39,0.00,,,0.00,,2013-02-26 14:31:00,
2013-02-26 07:41:00,27.0,5.0,29.97,SSE,160,1.0,4.0,39,0.00,,,0.00,,2013-02-26 14:41:00,
2013-02-26 07:52:00,30.0,7.0,29.97,NW,324,4.0,5.0,37,0.00,,,0.00,,2013-02-26 14:52:00,
2013-02-26 08:01:00,32.0,7.0,29.97,NNW,329,1.0,2.0,35,0.00,,,0.00,,2013-02-26 15:01:00,
2013-02-26 08:21:00,33.0,8.0,29.98,North,360,2.0,8.0,35,0.00,,,0.00,,2013-02-26 15:21:00,
2013-02-26 08:31:00,34.0,9.0,29.98,NNW,341,4.0,9.0,35,0.00,,,0.00,,2013-02-26 15:31:00,
2013-02-26 08:41:00,34.0,9.0,29.98,NNW,341,4.0,9.0,35,0.00,,,0.00,,2013-02-26 15:41:00,
2013-02-26 08:52:00,36.0,10.0,29.98,North,11,8.0,13.0,33,0.00,,,0.00,,2013-02-26 15:52:00,
2013-02-26 09:01:00,36.0,10.0,29.99,NNE,28,12.0,20.0,33,0.00,,,0.00,,2013-02-26 16:01:00,
2013-02-26 09:22:00,36.0,10.0,30.00,NNE,23,6.0,15.0,34,0.00,,,0.00,,2013-02-26 16:22:00,
2013-02-26 09:31:00,36.0,10.0,30.01,NNW,347,7.0,18.0,34,0.00,,,0.00,,2013-02-26 16:31:00,
2013-02-26 09:41:00,36.0,10.0,30.01,NNW,347,7.0,18.0,34,0.00,,,0.00,,2013-02-26 16:41:00,
2013-02-26 09:52:00,36.0,11.0,30.01,NNE,19,5.0,16.0,35,0.00,,,0.00,,2013-02-26 16:52:00,
2013-02-26 10:01:00,36.0,8.0,30.01,NE,40,14.0,21.0,30,0.00,,,0.00,,2013-02-26 17:01:00,
2013-02-26 10:11:00,36.0,7.0,30.01,NE,48,6.0,18.0,29,0.00,,,0.00,,2013-02-26 17:11:00,
2013-02-26 10:21:00,36.0,7.0,30.01,NE,48,6.0,18.0,29,0.00,,,0.00,,2013-02-26 17:21:00,
2013-02-26 10:32:00,36.0,6.0,30.01,NNE,18,14.0,22.0,28,0.00,,,0.00,,2013-02-26 17:32:00,
2013-02-26 10:41:00,36.0,6.0,30.01,NNE,18,14.0,22.0,28,0.00,,,0.00,,2013-02-26 17:41:00,
2013-02-26 10:52:00,36.0,6.0,30.01,NNE,18,14.0,22.0,28,0.00,,,0.00,,2013-02-26 17:52:00,
2013-02-26 11:01:00,37.0,8.0,30.02,North,11,5.0,17.0,30,0.00,,,0.00,,2013-02-26 18:01:00,
2013-02-26 11:12:00,37.0,8.0,30.02,North,11,5.0,17.0,30,0.00,,,0.00,,2013-02-26 18:12:00,
2013-02-26 11:21:00,37.0,7.0,30.02,NE,46,11.0,20.0,28,0.00,,,0.00,,2013-02-26 18:21:00,
2013-02-26 11:32:00,39.0,9.0,30.02,NNE,30,5.0,13.0,28,0.00,,,0.00,,2013-02-26 18:32:00,
2013-02-26 11:42:00,39.0,9.0,30.02,NNE,30,5.0,13.0,28,0.00,,,0.00,,2013-02-26 18:42:00,
2013-02-26 11:52:00,39.0,9.0,30.02,NNW,336,7.0,13.0,28,0.00,,,0.00,,2013-02-26 18:52:00,
2013-02-26 12:01:00,40.0,9.0,30.02,NW,325,8.0,14.0,27,0.00,,,0.00,,2013-02-26 19:01:00,
2013-02-26 12:11:00,40.0,9.0,30.02,NW,325,8.0,14.0,27,0.00,,,0.00,,2013-02-26 19:11:00,
2013-02-26 12:22:00,41.0,8.0,30.01,NW,321,7.0,16.0,25,0.00,,,0.00,,2013-02-26 19:22:00,
2013-02-26 12:31:00,41.0,8.0,30.01,North,9,8.0,15.0,25,0.00,,,0.00,,2013-02-26 19:31:00,
2013-02-26 12:41:00,41.0,8.0,30.01,North,9,8.0,15.0,25,0.00,,,0.00,,2013-02-26 19:41:00,
2013-02-26 12:52:00,41.0,6.0,30.01,North,5,11.0,18.0,23,0.00,,,0.00,,2013-02-26 19:52:00,
2013-02-26 13:01:00,41.0,5.0,30.01,NW,323,11.0,19.0,22,0.00,,,0.00,,2013-02-26 20:01:00,
2013-02-26 13:11:00,41.0,5.0,30.01,NW,323,11.0,19.0,22,0.00,,,0.00,,2013-02-26 20:11:00,
2013-02-26 13:21:00,42.0,5.0,30.01,NNE,30,9.0,17.0,21,0.00,,,0.00,,2013-02-26 20:21:00,
2013-02-26 13:31:00,42.0,6.0,30.01,NNE,17,8.0,22.0,22,0.00,,,0.00,,2013-02-26 20:31:00,
2013-02-26 13:41:00,42.0,6.0,30.01,NNE,17,8.0,22.0,22,0.00,,,0.00,,2013-02-26 20:41:00,
2013-02-26 13:52:00,42.0,5.0,30.00,NNE,28,8.0,20.0,21,0.00,,,0.00,,2013-02-26 20:52:00,
2013-02-26 14:01:00,42.0,4.0,30.00,NNE,17,7.0,24.0,20,0.00,,,0.00,,2013-02-26 21:01:00,
2013-02-26 14:11:00,42.0,4.0,30.00,NNE,17,7.0,24.0,20,0.00,,,0.00,,2013-02-26 21:11:00,
2013-02-26 14:21:00,43.0,5.0,30.00,NNW,329,10.0,19.0,20,0.00,,,0.00,,2013-02-26 21:21:00,
2013-02-26 14:31:00,43.0,2.0,29.99,NNW,329,11.0,20.0,18,0.00,,,0.00,,2013-02-26 21:31:00,
2013-02-26 14:41:00,43.0,2.0,29.99,NNW,329,11.0,20.0,18,0.00,,,0.00,,2013-02-26 21:41:00,
2013-02-26 14:51:00,43.0,5.0,29.99,NE,53,9.0,19.0,20,0.00,,,0.00,,2013-02-26 21:51:00,
2013-02-26 15:01:00,43.0,6.0,29.98,NW,315,5.0,13.0,21,0.00,,,0.00,,2013-02-26 22:01:00,
2013-02-26 15:11:00,43.0,7.0,29.99,NE,38,5.0,16.0,22,0.00,,,0.00,,2013-02-26 22:11:00,
2013-02-26 15:21:00,43.0,7.0,29.99,NE,38,5.0,16.0,22,0.00,,,0.00,,2013-02-26 22:21:00,
2013-02-26 15:31:00,42.0,6.0,29.99,NNE,23,8.0,22.0,22,0.00,,,0.00,,2013-02-26 22:31:00,
2013-02-26 15:41:00,42.0,6.0,29.99,NNE,23,8.0,22.0,22,0.00,,,0.00,,2013-02-26 22:41:00,
2013-02-26 15:51:00,42.0,5.0,29.99,NE,36,9.0,17.0,21,0.00,,,0.00,,2013-02-26 22:51:00,
2013-02-26 16:01:00,42.0,6.0,29.99,NNW,348,9.0,17.0,22,0.00,,,0.00,,2013-02-26 23:01:00,
2013-02-26 16:11:00,42.0,6.0,29.99,NNW,348,9.0,17.0,22,0.00,,,0.00,,2013-02-26 23:11:00,
2013-02-26 16:21:00,43.0,6.0,29.99,NE,47,6.0,17.0,21,0.00,,,0.00,,2013-02-26 23:21:00,
2013-02-26 16:31:00,42.0,6.0,29.99,NNW,338,6.0,13.0,22,0.00,,,0.00,,2013-02-26 23:31:00,
2013-02-26 16:41:00,42.0,6.0,29.99,NNW,338,6.0,13.0,22,0.00,,,0.00,,2013-02-26 23:41:00,
2013-02-26 16:52:00,42.0,6.0,30.00,NNW,336,9.0,14.0,22,0.00,,,0.00,,2013-02-26 23:52:00,
2013-02-26 17:01:00,42.0,8.0,30.00,NNE,18,5.0,12.0,24,0.00,,,0.00,,2013-02-27 00:01:00,
2013-02-26 17:11:00,42.0,8.0,30.00,NNE,18,5.0,12.0,24,0.00,,,0.00,,2013-02-27 00:11:00,
2013-02-26 17:21:00,42.0,7.0,30.00,NNW,332,7.0,14.0,23,0.00,,,0.00,,2013-02-27 00:21:00,
2013-02-26 17:31:00,41.0,4.0,30.01,NNW,327,9.0,18.0,21,0.00,,,0.00,,2013-02-27 00:31:00,
2013-02-26 17:41:00,41.0,4.0,30.01,NNW,327,9.0,18.0,21,0.00,,,0.00,,2013-02-27 00:41:00,
2013-02-26 17:51:00,41.0,4.0,30.01,North,355,6.0,12.0,21,0.00,,,0.00,,2013-02-27 00:51:00,
2013-02-26 18:01:00,40.0,3.0,30.02,North,355,7.0,12.0,21,0.00,,,0.00,,2013-02-27 01:01:00,
2013-02-26 18:11:00,40.0,3.0,30.02,North,355,7.0,12.0,21,0.00,,,0.00,,2013-02-27 01:11:00,
2013-02-26 18:21:00,39.0,2.0,30.02,NE,40,8.0,17.0,21,0.00,,,0.00,,2013-02-27 01:21:00,
2013-02-26 18:31:00,37.0,3.0,30.02,North,360,2.0,14.0,23,0.00,,,0.00,,2013-02-27 01:31:00,
2013-02-26 18:41:00,37.0,3.0,30.02,North,360,2.0,14.0,23,0.00,,,0.00,,2013-02-27 01:41:00,
2013-02-26 18:52:00,37.0,4.0,30.02,NE,42,6.0,13.0,24,0.00,,,0.00,,2013-02-27 01:52:00,
2013-02-26 19:01:00,36.0,3.0,30.03,NNW,342,6.0,17.0,24,0.00,,,0.00,,2013-02-27 02:01:00,
2013-02-26 19:11:00,36.0,3.0,30.03,NNW,342,6.0,17.0,24,0.00,,,0.00,,2013-02-27 02:11:00,
2013-02-26 19:21:00,36.0,3.0,30.04,North,355,6.0,12.0,24,0.00,,,0.00,,2013-02-27 02:21:00,
2013-02-26 19:31:00,36.0,3.0,30.04,NNE,13,9.0,18.0,24,0.00,,,0.00,,2013-02-27 02:31:00,
2013-02-26 19:41:00,36.0,3.0,30.04,NNE,13,9.0,18.0,24,0.00,,,0.00,,2013-02-27 02:41:00,
2013-02-26 19:52:00,36.0,2.0,30.04,NNW,348,6.0,19.0,23,0.00,,,0.00,,2013-02-27 02:52:00,
2013-02-26 20:01:00,35.0,2.0,30.04,ENE,74,7.0,20.0,24,0.00,,,0.00,,2013-02-27 03:01:00,
2013-02-26 20:11:00,35.0,3.0,30.06,NNE,22,5.0,19.0,25,0.00,,,0.00,,2013-02-27 03:11:00,
2013-02-26 20:21:00,35.0,3.0,30.06,NNE,22,5.0,19.0,25,0.00,,,0.00,,2013-02-27 03:21:00,
2013-02-26 20:31:00,34.0,2.0,30.06,NNE,28,6.0,18.0,25,0.00,,,0.00,,2013-02-27 03:31:00,
2013-02-26 20:41:00,34.0,2.0,30.06,NNE,28,6.0,18.0,25,0.00,,,0.00,,2013-02-27 03:41:00,
2013-02-26 20:52:00,33.0,1.0,30.06,NNE,21,7.0,14.0,25,0.00,,,0.00,,2013-02-27 03:52:00,
2013-02-26 21:01:00,33.0,2.0,30.07,North,360,6.0,12.0,26,0.00,,,0.00,,2013-02-27 04:01:00,
2013-02-26 21:11:00,33.0,2.0,30.07,North,360,6.0,12.0,26,0.00,,,0.00,,2013-02-27 04:11:00,
2013-02-26 21:21:00,32.0,2.0,30.08,NNE,32,7.0,10.0,27,0.00,,,0.00,,2013-02-27 04:21:00,
2013-02-26 21:31:00,32.0,2.0,30.08,NNE,24,4.0,12.0,27,0.00,,,0.00,,2013-02-27 04:31:00,
2013-02-26 21:41:00,32.0,2.0,30.08,NNE,24,4.0,12.0,27,0.00,,,0.00,,2013-02-27 04:41:00,
2013-02-26 21:52:00,31.0,1.0,30.09,NNE,32,1.0,10.0,27,0.00,,,0.00,,2013-02-27 04:52:00,
2013-02-26 22:01:00,31.0,2.0,30.09,East,87,1.0,10.0,28,0.00,,,0.00,,2013-02-27 05:01:00,
2013-02-26 22:11:00,31.0,2.0,30.09,East,87,1.0,10.0,28,0.00,,,0.00,,2013-02-27 05:11:00,
2013-02-26 22:21:00,30.0,1.0,30.10,NNW,338,3.0,10.0,28,0.00,,,0.00,,2013-02-27 05:21:00,
2013-02-26 22:32:00,30.0,0.0,30.10,NNE,12,6.0,11.0,27,0.00,,,0.00,,2013-02-27 05:32:00,
2013-02-26 22:41:00,30.0,0.0,30.10,NNE,12,6.0,11.0,27,0.00,,,0.00,,2013-02-27 05:41:00,
2013-02-26 22:52:00,30.0,0.0,30.10,ENE,61,4.0,9.0,27,0.00,,,0.00,,2013-02-27 05:52:00,
2013-02-26 23:02:00,30.0,1.0,30.11,NE,44,5.0,7.0,28,0.00,,,0.00,,2013-02-27 06:02:00,
2013-02-26 23:11:00,30.0,1.0,30.11,NE,44,5.0,7.0,28,0.00,,,0.00,,2013-02-27 06:11:00,
2013-02-26 23:21:00,29.0,0.0,30.11,NNE,26,5.0,11.0,28,0.00,,,0.00,,2013-02-27 06:21:00,
2013-02-26 23:32:00,29.0,1.0,30.11,NNE,20,4.0,11.0,29,0.00,,,0.00,,2013-02-27 06:32:00,
2013-02-26 23:41:00,29.0,1.0,30.11,NNE,20,4.0,11.0,29,0.00,,,0.00,,2013-02-27 06:41:00,
2013-02-26 23:52:00,28.0,1.0,30.11,NE,38,7.0,10.0,30,0.00,,,0.00,,2013-02-27 06:52:00,